Weather History for Cairns Airport, Queensland

Change the Weather History Date:

Monday, November 5, 2012

  Actual Average Record
Temperature  
Mean Temperature 82 °F -  
Max Temperature 89 °F 87 °F - ()
Min Temperature 74 °F 72 °F - ()
Cooling Degree Days 16    
Growing Degree Days 32 (Base 50)    
Moisture  
Dew Point 67 °F    
Average Humidity 62    
Maximum Humidity 78    
Minimum Humidity 31    
Precipitation  
Precipitation 0.12 in 0.15 in - ()
Sea Level Pressure  
Sea Level Pressure 29.93 in    
Wind  
Wind Speed 11 mph ()    
Max Wind Speed 18 mph    
Max Gust Speed -    
Visibility 7.1 miles    
Events Rain    
T = Trace of Precipitation, MM = Missing Value Source: Averaged Metar Reports

Daily Weather History Graph

Daily Weather History Graph

Search for Another Location

Airport:

Trip Planner

Search our weather history database for the weather conditions in past years. The results will help you decide how hot, cold, wet, or windy it might be!

Date:

Astronomy

Nov. 05, 2012 Rise Set
Actual Time 5:37 AM AEST 6:23 PM AEST
Civil Twilight 5:14 AM AEST 6:46 PM AEST
Nautical Twilight 4:48 AM AEST 7:13 PM AEST
Astronomical Twilight 4:21 AM AEST 7:40 PM AEST
Moon 11:28 PM AEST (11/5) 10:20 AM AEST (11/5)
Length of Visible Light 13h 31m
Length of Day
12h 46m
Waning Gibbous, 69% of the Moon is Illuminated
Nov 5
Waning Gibbous
Nov 7
Last Quarter
Nov 14
New
Nov 21
First Quarter
Nov 29
Full

Hourly Weather History & Observations

Time (AEST) Temp. Heat Index Dew Point Humidity Pressure Visibility Wind Dir Wind Speed Gust Speed Precip Events Conditions
12:00 AM 76 °F - 68 °F 70% 29.94 in - South 9.2 mph - -  
12:00 AM 77.0 °F - 68.0 °F 74% 29.95 in 6.2 mi South 9.2 mph - N/A   Partly Cloudy
1:00 AM 76 °F - 68 °F 70% 29.93 in - South 8.1 mph - -  
1:00 AM 75.2 °F - 68.0 °F 78% 29.92 in 6.2 mi South 8.1 mph - N/A   Scattered Clouds
1:30 AM 75.2 °F - 68.0 °F 78% 29.92 in 6.2 mi South 8.1 mph - N/A   Partly Cloudy
2:00 AM 75.2 °F - 68.0 °F 78% 29.92 in 6.2 mi SSE 9.2 mph - N/A   Partly Cloudy
2:30 AM 75.2 °F - 68.0 °F 78% 29.92 in 6.2 mi South 9.2 mph - N/A   Partly Cloudy
3:00 AM 75 °F - 68 °F 73% 29.92 in - SSE 10.4 mph - -  
3:00 AM 75.2 °F - 68.0 °F 78% 29.92 in 6.2 mi SSE 10.4 mph - N/A   Partly Cloudy
3:30 AM 75.2 °F - 68.0 °F 78% 29.92 in 6.2 mi SSE 10.4 mph - N/A   Partly Cloudy
4:00 AM 75 °F - 68 °F 72% 29.93 in - SSE 11.5 mph - -  
4:00 AM 75.2 °F - 68.0 °F 78% 29.92 in 6.2 mi SSE 11.5 mph - N/A   Partly Cloudy
4:30 AM 75.2 °F - 68.0 °F 78% 29.92 in 6.2 mi SSE 12.7 mph - N/A   Partly Cloudy
5:00 AM 75.2 °F - 66.2 °F 73% 29.92 in 6.2 mi SSE 12.7 mph - N/A   Partly Cloudy
5:30 AM 75.2 °F - 66.2 °F 73% 29.95 in 6.2 mi SSE 10.4 mph - N/A   Partly Cloudy
6:00 AM 76 °F - 67 °F 67% 29.95 in 12 mi SSE 9.2 mph - - Rain Light Rain Showers
6:00 AM 75.2 °F - 68.0 °F 78% 29.95 in 6.2 mi SSE 9.2 mph - N/A Rain Light Rain Showers
6:30 AM 77.0 °F - 68.0 °F 74% 29.95 in 6.2 mi SSE 10.4 mph - N/A   Scattered Clouds
7:00 AM 77 °F - 69 °F 68% 29.98 in - SSE 9.2 mph - -  
7:00 AM 77.0 °F - 68.0 °F 74% 29.98 in 6.2 mi SSE 9.2 mph - N/A   Scattered Clouds
7:30 AM 78.8 °F - 68.0 °F 69% 29.98 in 6.2 mi South 9.2 mph - N/A   Partly Cloudy
8:00 AM 77.0 °F - 69.8 °F 78% 29.98 in 6.2 mi SSE 9.2 mph - N/A Rain Light Rain Showers
8:30 AM 84.2 °F 87.3 °F 68.0 °F 58% 29.98 in 6.2 mi SSE 11.5 mph - N/A   Mostly Cloudy
9:00 AM 85 °F - 66 °F 43% 29.99 in 19 mi ESE 13.8 mph - -   Partly Cloudy
9:00 AM 86.0 °F 88.2 °F 66.2 °F 51% 29.98 in 6.2 mi ESE 13.8 mph - N/A   Scattered Clouds
9:30 AM 86.0 °F 88.2 °F 66.2 °F 51% 29.98 in 6.2 mi ESE 13.8 mph - N/A   Partly Cloudy
10:00 AM 87 °F - 65 °F 39% 29.99 in - East 10.4 mph - -  
10:00 AM 86.0 °F 88.2 °F 66.2 °F 51% 29.98 in 6.2 mi East 10.4 mph - N/A   Partly Cloudy
10:30 AM 87.8 °F 91.4 °F 68.0 °F 52% 29.95 in 6.2 mi ENE 13.8 mph - N/A   Partly Cloudy
11:00 AM 87.8 °F 90.4 °F 66.2 °F 49% 29.95 in 6.2 mi East 13.8 mph - N/A   Partly Cloudy
11:30 AM 87.8 °F 88.5 °F 62.6 °F 43% 29.95 in 6.2 mi East 13.8 mph - N/A   Partly Cloudy
12:00 PM 88 °F - 64 °F 35% 29.94 in 19 mi ESE 12.7 mph - -   Partly Cloudy
12:00 PM 87.8 °F 89.4 °F 64.4 °F 46% 29.92 in 6.2 mi ESE 12.7 mph - N/A   Partly Cloudy
12:30 PM 87.8 °F 89.4 °F 64.4 °F 46% 29.92 in 6.2 mi ESE 11.5 mph - N/A   Partly Cloudy
1:00 PM 89 °F - 62 °F 31% 29.91 in - East 12.7 mph - -  
1:00 PM 89.6 °F 90.1 °F 62.6 °F 40% 29.89 in 6.2 mi East 12.7 mph - N/A   Partly Cloudy
1:30 PM 87.8 °F 88.5 °F 62.6 °F 43% 29.89 in 6.2 mi East 15.0 mph - N/A   Partly Cloudy
2:00 PM 86.0 °F 87.3 °F 64.4 °F 48% 29.89 in 6.2 mi ESE 17.3 mph - N/A   Partly Cloudy
2:30 PM 87.8 °F 90.4 °F 66.2 °F 49% 29.86 in 6.2 mi SE 16.1 mph - N/A   Partly Cloudy
3:00 PM 87 °F - 64 °F 37% 29.87 in 19 mi ESE 18.4 mph - -   Partly Cloudy
3:00 PM 86.0 °F 87.3 °F 64.4 °F 48% 29.86 in 6.2 mi ESE 18.4 mph - N/A   Partly Cloudy
3:30 PM 86.0 °F 88.2 °F 66.2 °F 51% 29.86 in 6.2 mi ESE 17.3 mph - N/A   Partly Cloudy
4:00 PM 85 °F - 64 °F 39% 29.88 in - ESE 17.3 mph - -  
4:00 PM 86.0 °F 87.3 °F 64.4 °F 48% 29.86 in 6.2 mi ESE 17.3 mph - N/A   Partly Cloudy
4:30 PM 84.2 °F 86.6 °F 66.2 °F 55% 29.86 in 6.2 mi SE 17.3 mph - N/A   Partly Cloudy
5:00 PM 82.4 °F 84.6 °F 66.2 °F 58% 29.89 in 6.2 mi ESE 17.3 mph - N/A   Partly Cloudy
5:30 PM 82.4 °F 84.6 °F 66.2 °F 58% 29.89 in 6.2 mi ESE 17.3 mph - N/A   Partly Cloudy
6:00 PM 80 °F - 66 °F 54% 29.91 in - SE 17.3 mph - -  
6:00 PM 80.6 °F 82.7 °F 66.2 °F 61% 29.89 in 6.2 mi SE 17.3 mph - N/A   Partly Cloudy
6:30 PM 78.8 °F - 66.2 °F 65% 29.92 in 6.2 mi SE 16.1 mph - N/A   Mostly Cloudy
7:00 PM 79 °F - 68 °F 61% 29.93 in - SE 15.0 mph - -  
7:00 PM 78.8 °F - 68.0 °F 69% 29.92 in 6.2 mi SE 15.0 mph - N/A   Mostly Cloudy
7:30 PM 78.8 °F - 68.0 °F 69% 29.92 in 6.2 mi SE 15.0 mph - N/A   Mostly Cloudy
8:00 PM 78.8 °F - 68.0 °F 69% 29.92 in 6.2 mi SSE 15.0 mph - N/A   Scattered Clouds
8:30 PM 78.8 °F - 68.0 °F 69% 29.95 in 6.2 mi South 11.5 mph - N/A   Mostly Cloudy
9:00 PM 78 °F - 67 °F 61% 29.96 in - SSE 10.4 mph - -  
9:00 PM 78.8 °F - 66.2 °F 65% 29.95 in 6.2 mi SSE 10.4 mph - N/A   Scattered Clouds
9:30 PM 77.0 °F - 68.0 °F 74% 29.95 in 6.2 mi South 10.4 mph - N/A   Partly Cloudy
10:00 PM 77 °F - 67 °F 64% 29.98 in - South 8.1 mph - -  
10:00 PM 77.0 °F - 68.0 °F 74% 29.98 in 6.2 mi South 8.1 mph - N/A   Scattered Clouds
10:30 PM 77.0 °F - 68.0 °F 74% 29.95 in 6.2 mi South 8.1 mph - N/A   Partly Cloudy
11:00 PM 77.0 °F - 68.0 °F 74% 29.95 in 6.2 mi South 8.1 mph - N/A   Scattered Clouds
11:30 PM 77.0 °F - 68.0 °F 74% 29.95 in 6.2 mi South 6.9 mph - N/A   Partly Cloudy